Weather in Arkhipovka

Russia / Orenburg Oblast     52°02′50″N   55°25′33″E
temp.,
°C
wind,
m/s
gust,
m/s
humid.,
%
clouds,
%
prec.,
mm/h
press.,
hPa
HPBL,
m
26 february, fri
fri2623:00−24sse359595 0.0 1032121
02:00−23sse5797100 0.1 1030265
05:00−22se4897100 0.5 1028301
08:00−22se5996100 0.2 1026290
11:00−19se61095100 0.3 1025414
14:00−16se6991100 0.1 1024525
17:00−15se5891100 0.1 1023528
20:00−17ese4119592 0.0 1022250
27 february, sat
sat2723:00−17se5119572 0.0 1020248
02:00−15se7139398 0.0 1017358
05:00−14se8149499 0.3 1013465
08:00−12sse91694100 3.4 1008551
11:00−7sse71294100 5.7 1005575
14:00−3sse6996100 0.9 1003349
17:00+1sw49100100 1.6 1002409
20:000sw5998100 0.2 1002446
28 february, sun
sun2823:000sw4898100 0.5 1002440
02:00−1sw4896100 0.2 1001475
05:00−1sw3997100 0.3 1000428
08:00−2ssw51097100 0.6 1000447
11:00−1ssw5898100 2.0 1000556
14:00−6sw6792100 0.6 1001457
17:00−8wsw5893100 0.8 1004408
20:00−10sw369695 0.1 1007115
1 march, mon
mon123:00−9sw479595 0.3 1010163
02:00−11wsw359687 0.1 101188
05:00−12w349690 0.2 101381
08:00−13wnw239691 0.1 101538
11:00−11nw239394 0.4 1017243
14:00−10nw238899 0.1 1018398
17:00−10nw3492100 0.3 1019356
20:00−15wnw349587 0.1 102091
2 march, tue
tue223:00−18nw239792 0.1 102226
02:00−21nw229980 0.0 102120
05:00−23w2210072 0.1 102220
08:00−24wsw229989 0.0 102120
11:00−20sw349671 0.0 1020179
14:00−17ssw479482 0.0 1019340
17:00−15ssw599291 0.0 1016426
20:00−15ssw51095100 0.6 1014497